Flag for Germany Weather past 2 weeks in Mosbach, Baden-Württemberg, Germany

Now
76 °F

Clear.


Feels Like: 78 °F
Forecast: 59 / 87 °F
Wind: 1 mph from East

Location: Oehringen

Current Time: Aug 4, 2015 at 12:30:01 AM

Latest Report: Aug 3, 2015 at 11:00 PM


Visibility: 25 mi

Pressure: 29.95 "Hg

Humidity: 44%

Dew point: 53 °F

Location of MosbachLocation

Historic Weather in Mosbach — Graph

°F

Mosbach temperature yesterday

Maximum temperature yesterday: 91 °F (at 6:00 PM)
Minimum temperature yesterday: 59 °F (at 5:00 AM)
Average temperature yesterday: 77 °F

Past Weeks' High & Low Weather Summary

 TemperatureHumidityPressure
High94 °F (Jul 22, 4:00 PM)94% (Jul 29, 3:00 PM)30.13 "Hg (Jul 29, 3:00 PM)
Low47 °F (Jul 31, 5:00 AM)22% (Aug 3, 6:00 PM)29.65 "Hg (Jul 24, 9:00 PM)
Average70 °F57%29.92 "Hg
* Reported Jul 19 11:00 PM — Aug 3 11:00 PM, Mosbach, Weather by CustomWeather, © 2015

Note: Actual official high and low records may vary slightly from our data, if they occured in-between our weather recording intervals... More about our weather records

Advertising

Mosbach weather history for previous 24 hours

 ConditionsComfort  
Time TempWeatherWind HumidityBarometerVisibility
11:00 PM
Mon, Aug 3
76 °FClear.1 mph44%29.95 "Hg25 mi
10:00 PM78 °FClear.2 mph43%29.95 "Hg25 mi
9:00 PM85 °FClear.2 mph29%29.93 "Hg28 mi
8:00 PM90 °FSunny.2 mph24%29.92 "Hg28 mi
7:00 PM91 °FSunny.2 mph23%29.92 "Hg28 mi
6:00 PM91 °FSunny.2 mph22%29.93 "Hg31 mi
5:00 PM91 °FSunny.2 mph24%29.94 "Hg34 mi
4:00 PM90 °FSunny.2 mph24%29.96 "Hg34 mi
3:00 PM90 °FSunny.3 mph24%29.97 "Hg22 mi
2:00 PM89 °FSunny.1 mph26%29.98 "Hg22 mi
1:00 PM86 °FSunny.3 mph30%30.00 "Hg15 mi
12:00 PM84 °FSunny.5 mph33%30.01 "Hg19 mi
11:00 AM82 °FSunny.6 mph36%30.03 "Hg25 mi
10:00 AM78 °FPassing clouds.3 mph38%30.05 "Hg22 mi
9:00 AM73 °FSunny.1 mph47%30.05 "Hg22 mi
8:00 AM65 °FSunny.2 mph66%30.06 "Hg14 mi
7:00 AM61 °FSunny.3 mph73%30.06 "Hg14 mi
6:00 AM60 °FSunny.2 mph77%30.05 "Hg12 mi
5:00 AM59 °FClear.2 mph77%30.06 "Hg12 mi
4:00 AM62 °FClear.2 mph72%30.06 "Hg14 mi
3:00 AM62 °FClear.2 mph69%30.05 "Hg16 mi
2:00 AM65 °FClear.2 mph62%30.05 "Hg22 mi
1:00 AM69 °FClear.2 mph55%30.04 "Hg25 mi
Weather by CustomWeather, © 2015

See weather overviewHow to use our weather pages